Flag for Poland Weather past 2 weeks in Lublin, Poland

Now
79 °F

Overcast.


Feels Like: 80 °F
Forecast: 59 / 90 °F
Wind: 1 mph from South

Location: Lublin Radawiec

Current Time: Aug 2, 2015 at 7:12:59 PM

Latest Report: Aug 2, 2015 at 6:00 PM


Visibility: 19 mi

Pressure: 30.11 "Hg

Humidity: 43%

Dew point: 55 °F

Location of LublinLocation

Historic Weather in Lublin — Graph

°F

Lublin temperature yesterday

Maximum temperature yesterday: 72 °F (at 4:00 PM)
Minimum temperature yesterday: 45 °F (at 3:00 AM)
Average temperature yesterday: 61 °F

Past Weeks' High & Low Weather Summary

 TemperatureHumidityPressure
High91 °F (Jul 23, 1:00 PM)97% (Aug 1, 4:00 AM)30.18 "Hg (Aug 1, 4:00 AM)
Low45 °F (Aug 1, 3:00 AM)34% (Jul 30, 4:00 PM)29.66 "Hg (Jul 25, 6:00 PM)
Average68 °F67%29.90 "Hg
* Reported Jul 18 5:00 PM — Aug 2 5:00 PM, Lublin, Weather by CustomWeather, © 2015

Note: Actual official high and low records may vary slightly from our data, if they occured in-between our weather recording intervals... More about our weather records

Advertising

Lublin weather history for previous 24 hours

 ConditionsComfort  
Time TempWeatherWind HumidityBarometerVisibility
5:00 PM
Sun, Aug 2
82 °FOvercast.1 mph37%30.11 "Hg25 mi
4:00 PM83 °FOvercast.1 mph35%30.11 "Hg19 mi
3:00 PM82 °FOvercast.2 mph35%30.10 "Hg28 mi
2:00 PM81 °FOvercast.3 mph37%30.12 "Hg28 mi
1:00 PM79 °FOvercast.3 mph39%30.14 "Hg19 mi
12:00 PM78 °FPassing clouds.3 mph43%30.14 "Hg19 mi
11:00 AM75 °FScattered clouds.3 mph47%30.16 "Hg19 mi
10:00 AM71 °FPartly sunny.3 mph53%30.16 "Hg19 mi
9:00 AM66 °FPartly sunny.2 mph61%30.16 "Hg19 mi
8:00 AM62 °FOvercast.2 mph65%30.16 "Hg25 mi
7:00 AM59 °FOvercast.2 mph68%30.17 "Hg22 mi
6:00 AM57 °FOvercast.1 mph73%30.17 "Hg12 mi
4:00 AM56 °FOvercast.2 mph73%30.17 "Hg22 mi
3:00 AM57 °FOvercast.1 mph71%30.17 "Hg18 mi
2:00 AM56 °FPassing clouds.1 mph73%30.17 "Hg22 mi
1:00 AM56 °FPassing clouds.1 mph72%30.18 "Hg19 mi
12:00 AM60 °FPassing clouds.2 mph62%30.16 "Hg19 mi
7:00 PM
Sat, Aug 1
69 °FOvercast.1 mph52%30.11 "Hg16 mi
Weather by CustomWeather, © 2015

See weather overviewHow to use our weather pages